Regional Weather Roundup
Issued by NWS

Home | Current Version | Previous Version | Text Only | Print | Product List | Glossary Off
Versions: 1 2 3 4 5 6 7 8 9 10 11 12 13 14 15 16 17 18 19 20 21 22 23 24 25 26 27 28 29 30 31 32 33 34 35 36 37 38 39 40 41 42 43 44 45 46 47 48 49 50

000
ASUS43 KIND 280809
RWRIN

WEATHER ROUNDUP FOR INDIANA
NATIONAL WEATHER SERVICE INDIANAPOLIS IN
300 AM EST SUN DEC 28 2014

NOTE: "FAIR" INDICATES FEW OR NO CLOUDS BELOW 12,000 FEET WITH NO
SIGNIFICANT WEATHER AND/OR OBSTRUCTIONS TO VISIBILITY.

* - STATION DOES NOT REPORT WEATHER SUCH AS PRECIPITATION OR FOG.

+ - STATION NOT QUALITY CONTROLLED BY THE NATIONAL WEATHER SERVICE.
    USE DATA WITH CAUTION...ESPECIALLY DEWPOINT AND RELATIVE
    HUMIDITY OBSERVATIONS.

INZ001>003-010>013-019-020-280900-
NORTHWEST INDIANA

CITY           SKY/WX    TMP DP  RH WIND       PRES   REMARKS
GARY /AIRPORT/ CLOUDY    32  22  66 W8        30.13R WCI  25
KNOX *+        CLOUDY    33  26  78 W9        30.10R WCI  25
LA PORTE +     CLOUDY    35  28  78 NW5       30.11R WCI  31
MICHIGAN CITY+ CLOUDY    32  23  69 W6        30.11R WCI  26
MONTICELLO +   CLOUDY    32  28  86 NW10      30.12R WCI  23
RENSSELAER +   CLOUDY    32  30  93 W12G18    30.12S WCI  23
VALPARAISO     CLOUDY    32  25  75 W9        30.11R WCI  24

$$

LMZ046-743>745-280900-
SOUTHERN LAKE MICHIGAN

STATION/POSITION TIME  TEMP WIND        PRES
                       AIR  DIR/SP/G
                 (UTC) (F)  (DEG/KT/KT) (MB)
MICHIGAN CITY    0800   33  250/ 15/ 17   N/A

$$

INZ004-005-014>016-021>024-280900-
NORTH CENTRAL INDIANA

CITY           SKY/WX    TMP DP  RH WIND       PRES   REMARKS
GOSHEN         CLOUDY    35  28  75 NW10      30.07R WCI  27
LOGANSPORT +   CLOUDY    32  28  86 W8        30.11R WCI  25
PERU/GRISSOM   CLOUDY    32  32 100 W8        30.09R WCI  25
ROCHESTER +    CLOUDY    34  32  93 W8        30.10R WCI  27
SOUTH BEND     NOT AVBL
WARSAW +       CLOUDY    32  30  93 W7        30.08R WCI  26

$$

INZ006>009-017-018-025>027-280900-
NORTHEAST INDIANA

CITY           SKY/WX    TMP DP  RH WIND       PRES   REMARKS
ANGOLA *+      CLOUDY    34  28  80 NW8       30.04R WCI  27
AUBURN +       CLOUDY    34  30  86 NW12      30.07R WCI  25
FORT WAYNE     CLOUDY    34  28  79 NW9       30.08R WCI  27
HUNTINGTON +   CLOUDY    32  27  80 NW6       30.08R WCI  27

$$

INZ028-029-035-036-043>045-051>053-280900-
WEST CENTRAL INDIANA

CITY           SKY/WX    TMP DP  RH WIND       PRES   REMARKS
GREENCASTLE +  CLOUDY    32  27  80 NW7       30.12S WCI  26
LAFAYETTE      CLOUDY    31  26  82 NW8       30.13R WCI  23
TERRE HAUTE    CLOUDY    33  28  81 NW10      30.14S WCI  25

$$

INZ030>032-037>040-046>048-054>057-064-065-280900-
CENTRAL INDIANA

CITY           SKY/WX    TMP DP  RH WIND       PRES   REMARKS
CP ATTERBURY + CLOUDY    34  32  93 MISG      30.11R
FRANKFORT +    CLOUDY    32  32 100 W6        30.12S WCI  26
INDIANAPOLIS   DRIZZLE   31  29  92 NW13      30.10S WCI  21
-EAGLE CREEK   CLOUDY    32  29  88 NW7       30.09S WCI  26
KOKOMO *+      CLOUDY    32  27  80 NW13G21   30.09R WCI  22
MARION +       CLOUDY    32  29  89 NW8       30.09R WCI  25
MT COMFORT *+  CLOUDY    34  34 100 NW7       30.10R WCI  28
SHELBYVILLE    CLOUDY    35  31  85 NW12      30.10R WCI  27
ZIONSVILLE +   CLOUDY    32  28  83 NW12      30.10S WCI  23

$$

INZ033-034-041-042-049-050-058-059-280900-
EAST CENTRAL INDIANA

CITY           SKY/WX    TMP DP  RH WIND       PRES   REMARKS
MUNCIE         CLOUDY    33  30  88 NW9       30.08R WCI  25

$$

INZ060-061-067>069-081>083-085>088-280900-
SOUTHWEST INDIANA

CITY           SKY/WX    TMP DP  RH WIND       PRES   REMARKS
EVANSVILLE     CLOUDY    39  34  82 NW8G17    30.17R
HUNTINGBURG *+ CLOUDY    37  34  87 N10       30.14R
WASHINGTON +   CLOUDY    35  32  88 NW9       30.14S FOG     WCI  28

$$

INZ062-063-066-070>080-084-089>092-280900-
SOUTH CENTRAL AND SOUTHEAST INDIANA

CITY           SKY/WX    TMP DP  RH WIND       PRES   REMARKS
BLOOMINGTON    CLOUDY    34  33  96 NW6       30.11S WCI  29
SEYMOUR +      CLOUDY    39  39 100 N6        30.10R

$$



USA.gov is the U.S. government's official web portal to all federal, state and local government web resources and services.